EST,Max TemperatureF,Mean TemperatureF,Min TemperatureF,Max Dew PointF,MeanDew PointF,Min DewpointF,Max Humidity, Mean Humidity, Min Humidity, Max Sea Level PressureIn, Mean Sea Level PressureIn, Min Sea Level PressureIn, Max VisibilityMiles, Mean VisibilityMiles, Min VisibilityMiles, Max Wind SpeedMPH, Mean Wind SpeedMPH, Max Gust SpeedMPH,PrecipitationIn, CloudCover, Events, WindDirDegrees
2014-2-1,36,22,7,30,24,6,92,72,52,30.32,30.09,29.89,10,4,1,13,2,17,0.20,5,Snow,184
2014-2-2,37,32,26,32,29,17,96,82,68,30.17,29.93,29.83,10,6,1,15,4,20,0.10,8,Rain-Snow,342
2014-2-3,28,16,3,19,14,0,88,69,50,30.36,30.24,30.13,10,9,3,12,2,14,T,4,Snow,6
2014-2-4,26,11,-4,11,4,-9,92,71,50,30.50,30.43,30.37,10,8,1,8,1,12,T,4,Snow,2
2014-2-5,22,16,9,18,14,2,91,82,73,30.35,30.02,29.79,10,2,0,16,4,24,0.41,8,Fog-Snow,350
2014-2-6,17,9,1,4,-2,-11,91,72,53,30.32,30.18,30.06,10,9,2,6,3,8,T,3,Snow,350
2014-2-7,22,13,4,8,5,1,87,68,49,30.18,30.15,30.11,10,8,2,12,4,17,T,7,Snow,204
2014-2-8,22,13,3,4,2,0,87,64,41,30.25,30.21,30.17,10,10,9,13,4,19,0.00,5,,253
2014-2-9,23,14,4,14,8,0,88,67,45,30.19,30.06,29.93,10,6,1,9,2,14,0.03,7,Snow,358
2014-2-10,19,14,9,12,8,3,88,75,61,30.22,30.04,29.92,10,5,1,14,5,18,T,8,Snow,335
2014-2-11,14,2,-10,3,-3,-14,88,70,51,30.53,30.32,30.16,10,8,2,16,4,21,T,6,Snow,336
2014-2-12,24,2,-21,-2,-10,-24,89,61,32,30.63,30.50,30.35,10,10,6,9,3,13,0.00,0,,181
2014-2-13,26,14,2,22,13,-6,88,72,55,30.32,29.90,29.34,10,5,1,12,3,17,0.17,7,Snow,6
2014-2-14,27,24,21,23,18,15,96,82,68,29.70,29.25,29.01,10,2,0,21,9,36,0.44,8,Fog-Snow,333
2014-2-15,30,21,12,25,20,10,91,83,74,29.84,29.77,29.70,10,4,2,17,3,26,T,8,Snow,333
2014-2-16,20,15,9,13,2,-7,80,63,45,30.07,29.83,29.70,10,8,2,23,9,32,T,4,Snow,332
2014-2-17,17,2,-13,-7,-9,-17,75,56,36,30.42,30.33,30.10,10,10,10,18,4,24,0.00,0,,343
2014-2-18,22,4,-15,18,9,-20,88,78,67,30.35,30.10,29.99,10,5,0,13,3,18,0.05,6,Fog-Snow,174
2014-2-19,31,18,4,27,21,1,92,78,63,30.06,29.83,29.72,10,5,0,9,3,14,0.15,6,Fog-Snow,188
2014-2-20,43,36,29,31,27,18,89,64,39,30.17,30.10,29.91,10,6,1,13,3,21,0.11,6,Snow,197
2014-2-21,39,35,31,34,32,29,96,89,82,30.08,29.81,29.66,10,6,0,20,4,30,0.50,8,Fog-Rain-Snow-Thunderstorm,189
2014-2-22,44,37,29,31,19,6,92,59,25,29.90,29.78,29.72,10,8,0,24,9,33,0.00,3,Fog,213
2014-2-23,44,35,26,19,12,7,63,43,22,29.92,29.85,29.78,10,10,7,15,5,25,0.00,1,,247
2014-2-24,29,22,14,13,8,2,61,50,39,29.95,29.83,29.77,10,6,1,17,7,26,T,8,Snow,302
2014-2-25,18,13,7,9,5,2,84,67,49,29.98,29.92,29.85,10,5,1,18,3,25,0.01,8,Snow,354
2014-2-26,18,8,-2,9,-2,-13,87,59,31,29.90,29.80,29.72,10,6,1,22,5,29,T,7,Snow,232
2014-2-27,21,10,-1,11,2,-10,80,58,35,29.89,29.66,29.53,10,7,0,15,5,23,0.02,8,Fog-Snow,224
2014-2-28,14,3,-8,-5,-10,-15,75,54,33,30.46,30.27,29.93,10,10,6,14,4,20,T,1,,270